Change the Weather History Date:

Sunday, October 7, 2012

  Actual Average (KARR) Record (KARR)
Temperature  
Mean Temperature 41 °F 54 °F  
Max Temperature 50 °F 66 °F 89 °F (2007)
Min Temperature 32 °F 42 °F 24 °F (2001)
Degree Days  
Heating Degree Days 24 12  
Month to date heating degree days 76  
Since 1 July heating degree days 229  
Cooling Degree Days 0 1  
Month to date cooling degree days 7  
Year to date cooling degree days 654  
Moisture  
Dew Point 23 °F    
Average Humidity 52    
Maximum Humidity 80    
Minimum Humidity 24    
Precipitation  
Precipitation 0.00 in 0.09 in 0.66 in (2008)
Month to date precipitation 0.74  
Year to date precipitation 29.38  
Sea Level Pressure  
Sea Level Pressure 30.16 in    
Wind  
Wind Speed 7 mph (West)    
Max Wind Speed 13 mph    
Max Gust Speed 20 mph    
Visibility 10 miles    
Events      
T = Trace of Precipitation, MM = Missing Value Source: NWS Daily Summary

Daily Weather History Graph

Daily Weather History Graph

Search for Another Location

Airport or City:

Trip Planner

Search our weather history database for the weather conditions in past years. The results will help you decide how hot, cold, wet, or windy it might be!

Date:

Astronomy

Oct. 07, 2012 Rise Set
Actual Time 6:58 AM CDT 6:25 PM CDT
Civil Twilight 6:30 AM CDT 6:53 PM CDT
Nautical Twilight 5:58 AM CDT 7:25 PM CDT
Astronomical Twilight 5:26 AM CDT 7:57 PM CDT
Moon 11:33 PM CDT (10/7) 1:39 PM CDT (10/7)
Length of Visible Light 12h 22m
Length of Day
11h 26m
Waning Gibbous, 56% of the Moon is Illuminated
Oct 7
Waning Gibbous
Oct 8
Last Quarter
Oct 15
New
Oct 21
First Quarter
Oct 29
Full

Hourly Weather History & Observations

Time (CDT) Temp. Windchill Dew Point Humidity Pressure Visibility Wind Dir Wind Speed Gust Speed Precip Events Conditions
12:15 AM 41.4 °F 37.6 °F 28.8 °F 61% 30.18 in 10.0 mi West 5.8 mph - N/A   Overcast
12:35 AM 41.2 °F 36.6 °F 28.4 °F 60% 30.18 in 10.0 mi WNW 6.9 mph - N/A   Overcast
12:55 AM 41.0 °F 37.1 °F 28.2 °F 60% 30.18 in 10.0 mi West 5.8 mph - N/A   Overcast
1:15 AM 41.0 °F 36.4 °F 28.4 °F 61% 30.18 in 10.0 mi WNW 6.9 mph - N/A   Overcast
1:35 AM 40.6 °F 36.0 °F 28.6 °F 62% 30.18 in 10.0 mi WNW 6.9 mph - N/A   Overcast
1:55 AM 40.6 °F 36.0 °F 28.6 °F 62% 30.18 in 10.0 mi WNW 6.9 mph - N/A   Overcast
2:15 AM 40.1 °F 35.3 °F 28.8 °F 64% 30.17 in 10.0 mi WNW 6.9 mph - N/A   Overcast
2:35 AM 40.1 °F 36.1 °F 28.9 °F 64% 30.17 in 10.0 mi WNW 5.8 mph - N/A   Overcast
3:15 AM 40.1 °F 34.7 °F 29.1 °F 65% 30.16 in 10.0 mi WNW 8.1 mph - N/A   Overcast
3:35 AM 39.7 °F 34.9 °F 29.3 °F 66% 30.16 in 10.0 mi WNW 6.9 mph - N/A   Overcast
3:55 AM 39.2 °F 34.2 °F 29.3 °F 68% 30.16 in 10.0 mi WNW 6.9 mph - N/A   Overcast
4:15 AM 38.3 °F 33.9 °F 29.3 °F 70% 30.15 in 10.0 mi WNW 5.8 mph - N/A   Overcast
4:35 AM 37.6 °F 33.1 °F 29.8 °F 74% 30.15 in 10.0 mi NW 5.8 mph - N/A   Scattered Clouds
4:55 AM 36.5 °F 32.7 °F 29.8 °F 77% 30.15 in 10.0 mi NW 4.6 mph - N/A   Scattered Clouds
5:15 AM 36.5 °F 32.7 °F 29.8 °F 77% 30.15 in 10.0 mi WNW 4.6 mph - N/A   Mostly Cloudy
5:35 AM 35.1 °F 30.1 °F 29.1 °F 79% 30.15 in 10.0 mi WNW 5.8 mph - N/A   Scattered Clouds
5:55 AM 35.6 °F 30.7 °F 29.7 °F 79% 30.16 in 10.0 mi WNW 5.8 mph - N/A   Mostly Cloudy
6:15 AM 35.6 °F 31.7 °F 29.3 °F 78% 30.16 in 10.0 mi WNW 4.6 mph - N/A   Overcast
6:35 AM 35.4 °F 31.5 °F 29.8 °F 80% 30.16 in 10.0 mi WNW 4.6 mph - N/A   Overcast
6:55 AM 36.7 °F 32.9 °F 30.2 °F 77% 30.16 in 10.0 mi WNW 4.6 mph - N/A   Overcast
7:35 AM 38.3 °F 34.8 °F 30.0 °F 72% 30.17 in 10.0 mi West 4.6 mph - N/A   Overcast
7:55 AM 39.2 °F 35.9 °F 30.2 °F 70% 30.18 in 10.0 mi West 4.6 mph - N/A   Overcast
8:15 AM 39.4 °F 35.2 °F 29.8 °F 69% 30.18 in 10.0 mi WNW 5.8 mph - N/A   Overcast
8:35 AM 40.1 °F 35.3 °F 30.0 °F 67% 30.18 in 10.0 mi WNW 6.9 mph - N/A   Overcast
8:55 AM 41.0 °F 36.4 °F 29.8 °F 64% 30.19 in 10.0 mi NW 6.9 mph - N/A   Overcast
9:15 AM 42.1 °F 36.6 °F 29.1 °F 60% 30.19 in 10.0 mi WNW 9.2 mph - N/A   Overcast
9:35 AM 42.8 °F 39.3 °F 27.9 °F 56% 30.19 in 10.0 mi WNW 5.8 mph - N/A   Overcast
9:55 AM 43.7 °F 39.7 °F 27.3 °F 53% 30.19 in 10.0 mi WNW 6.9 mph - N/A   Overcast
10:15 AM 44.6 °F 40.2 °F 25.3 °F 47% 30.19 in 10.0 mi NNW 8.1 mph - N/A   Overcast
10:35 AM 45.0 °F 40.6 °F 22.5 °F 41% 30.19 in 10.0 mi NW 8.1 mph - N/A   Overcast
10:55 AM 45.0 °F 38.9 °F 19.0 °F 36% 30.19 in 10.0 mi West 12.7 mph - N/A   Overcast
11:15 AM 45.5 °F 41.8 °F 19.2 °F 35% 30.19 in 10.0 mi West 6.9 mph - N/A   Overcast
11:55 AM 46.4 °F 41.9 °F 17.2 °F 31% 30.19 in 10.0 mi NW 9.2 mph - N/A   Mostly Cloudy
12:15 PM 46.9 °F - 17.8 °F 31% 30.19 in 10.0 mi WNW 8.1 mph - N/A   Overcast
12:35 PM 46.4 °F 41.9 °F 18.1 °F 32% 30.19 in 10.0 mi WNW 9.2 mph - N/A   Overcast
12:55 PM 46.8 °F - 18.0 °F 32% 30.19 in 10.0 mi WNW 6.9 mph 16.1 mph N/A   Overcast
1:15 PM 46.0 °F 43.9 °F 16.9 °F 31% 30.17 in 10.0 mi WNW 4.6 mph - N/A   Mostly Cloudy
1:35 PM 48.9 °F - 17.6 °F 29% 30.16 in 10.0 mi WSW 10.4 mph - N/A   Scattered Clouds
1:55 PM 47.7 °F - 16.7 °F 29% 30.16 in 10.0 mi West 8.1 mph 16.1 mph N/A   Scattered Clouds
2:15 PM 49.6 °F - 16.3 °F 27% 30.15 in 10.0 mi SW 10.4 mph 17.3 mph N/A   Clear
2:35 PM 50.0 °F - 16.7 °F 27% 30.14 in 10.0 mi West 9.2 mph 19.6 mph N/A   Clear
3:15 PM 50.0 °F - 15.1 °F 25% 30.14 in 10.0 mi West 5.8 mph 16.1 mph N/A   Clear
3:35 PM 50.5 °F - 16.0 °F 25% 30.13 in 10.0 mi West 8.1 mph - N/A   Clear
3:55 PM 50.2 °F - 14.7 °F 24% 30.12 in 10.0 mi West 8.1 mph - N/A   Clear
4:15 PM 50.2 °F - 15.4 °F 25% 30.12 in 10.0 mi West 10.4 mph - N/A   Clear
4:35 PM 49.8 °F - 14.5 °F 25% 30.12 in 10.0 mi WNW 5.8 mph - N/A   Clear
4:55 PM 49.6 °F - 16.2 °F 26% 30.12 in 10.0 mi West 8.1 mph - N/A   Clear
5:15 PM 48.9 °F - 16.3 °F 27% 30.12 in 10.0 mi WSW 9.2 mph - N/A   Clear
5:35 PM 48.2 °F - 16.5 °F 28% 30.12 in 10.0 mi West 9.2 mph - N/A   Clear
5:55 PM 47.3 °F - 16.5 °F 29% 30.12 in 10.0 mi West 8.1 mph - N/A   Clear
6:15 PM 45.3 °F 43.0 °F 17.4 °F 33% 30.12 in 10.0 mi West 4.6 mph - N/A   Clear
6:35 PM 44.4 °F 42.9 °F 17.8 °F 34% 30.12 in 10.0 mi SW 3.5 mph - N/A   Clear
6:55 PM 42.8 °F 40.1 °F 18.3 °F 37% 30.12 in 10.0 mi SW 4.6 mph - N/A   Clear
7:15 PM 41.0 °F 38.0 °F 19.2 °F 42% 30.13 in 10.0 mi SSW 4.6 mph - N/A   Clear
7:35 PM 38.8 °F 35.4 °F 20.3 °F 47% 30.13 in 10.0 mi SSW 4.6 mph - N/A   Clear
7:55 PM 36.3 °F 31.6 °F 20.3 °F 52% 30.13 in 10.0 mi South 5.8 mph - N/A   Clear
8:15 PM 34.3 °F 29.2 °F 20.7 °F 57% 30.14 in 10.0 mi SSW 5.8 mph - N/A   Clear
8:35 PM 35.6 °F 30.7 °F 21.2 °F 56% 30.14 in 10.0 mi SSW 5.8 mph - N/A   Clear
8:55 PM 34.9 °F 29.9 °F 21.2 °F 57% 30.14 in 10.0 mi South 5.8 mph - N/A   Clear
9:15 PM 34.0 °F 28.8 °F 20.8 °F 59% 30.14 in 10.0 mi South 5.8 mph - N/A   Clear
9:35 PM 33.8 °F 28.6 °F 21.0 °F 60% 30.14 in 10.0 mi SSW 5.8 mph - N/A   Clear
9:55 PM 34.9 °F 29.9 °F 21.4 °F 58% 30.14 in 10.0 mi SSW 5.8 mph - N/A   Clear
10:15 PM 32.5 °F 28.1 °F 21.0 °F 63% 30.14 in 10.0 mi SSW 4.6 mph - N/A   Clear
10:35 PM 32.5 °F 27.1 °F 21.7 °F 64% 30.14 in 10.0 mi SSW 5.8 mph - N/A   Clear
10:55 PM 33.8 °F 27.7 °F 22.1 °F 62% 30.14 in 10.0 mi SSW 6.9 mph - N/A   Clear
11:15 PM 34.2 °F 29.0 °F 21.7 °F 60% 30.14 in 10.0 mi SW 5.8 mph - N/A   Clear
11:35 PM 32.9 °F 27.5 °F 21.7 °F 64% 30.14 in 10.0 mi SSW 5.8 mph - N/A   Clear
11:55 PM 34.3 °F 30.2 °F 21.7 °F 60% 30.14 in 10.0 mi SW 4.6 mph - N/A   Clear